| time (UTC) | temp F | wind direction | speed MPH | gust MPH | rain 1hr in | rain 24hr in | rain mn in | humidity % | barometer mb |
| 20260504050018 | 45 | 254 | 0.0 | 0.0 | 0.00 | 0.00 | 0.00 | 82 | 1015.0 |
| 20260504044522 | 44 | 254 | 0.0 | 0.0 | 0.00 | 0.00 | 0.00 | 82 | 1014.9 |
| 20260504043031 | 44 | 254 | 0.0 | 0.0 | 0.00 | 0.00 | 0.00 | 82 | 1015.0 |
| 20260504041512 | 44 | 254 | 0.0 | 0.0 | 0.00 | 0.00 | 0.00 | 81 | 1015.1 |
| 20260504040012 | 44 | 254 | 0.0 | 0.0 | 0.00 | 0.00 | 0.00 | 80 | 1015.0 |
| 20260504034515 | 44 | 254 | 0.0 | 0.0 | 0.00 | 0.00 | 0.00 | 79 | 1015.0 |
| 20260504033022 | 45 | 254 | 0.0 | 0.0 | 0.00 | 0.00 | 0.00 | 77 | 1015.1 |
| 20260504031524 | 46 | 254 | 0.0 | 0.0 | 0.00 | 0.00 | 0.00 | 76 | 1015.1 |
| 20260504030025 | 46 | 254 | 0.0 | 0.0 | 0.00 | 0.00 | 0.00 | 75 | 1015.1 |
| 20260504024513 | 46 | 254 | 0.0 | 0.0 | 0.00 | 0.00 | 0.00 | 73 | 1015.1 |
| 20260504023020 | 46 | 254 | 0.0 | 0.0 | 0.00 | 0.00 | 0.00 | 71 | 1015.0 |
| 20260504021524 | 47 | 254 | 0.0 | 0.0 | 0.00 | 0.00 | 0.00 | 69 | 1014.9 |
| 20260504020025 | 48 | 254 | 0.0 | 0.0 | 0.00 | 0.00 | 0.00 | 66 | 1014.7 |
| 20260504014533 | 49 | 254 | 0.0 | 0.0 | 0.00 | 0.00 | 0.00 | 63 | 1014.6 |
| 20260504013030 | 50 | 254 | 0.0 | 0.0 | 0.00 | 0.00 | 0.00 | 59 | 1014.3 |
| 20260504011521 | 50 | 254 | 0.0 | 0.0 | 0.00 | 0.00 | 0.00 | 56 | 1014.3 |
| 20260504010024 | 52 | 254 | 0.0 | 0.0 | 0.00 | 0.00 | 0.00 | 54 | 1014.1 |
| 20260504004533 | 53 | 254 | 0.0 | 0.0 | 0.00 | 0.00 | 0.00 | 50 | 1014.2 |
| 20260504003028 | 55 | 254 | 0.0 | 0.0 | 0.00 | 0.00 | 0.00 | 47 | 1014.1 |
| 20260504001518 | 56 | 254 | 0.0 | 0.0 | 0.00 | 0.00 | 0.00 | 44 | 1014.1 |
| 20260504000028 | 58 | 254 | 0.0 | 0.0 | 0.00 | 0.00 | 0.00 | 41 | 1014.2 |
| 20260503234522 | 60 | 254 | 0.0 | 0.0 | 0.00 | 0.00 | 0.00 | 42 | 1014.1 |
| 20260503233028 | 61 | 254 | 0.0 | 1.0 | 0.00 | 0.00 | 0.00 | 38 | 1013.9 |
| 20260503231531 | 63 | 248 | 0.0 | 3.0 | 0.00 | 0.00 | 0.00 | 32 | 1013.8 |
| 20260503230021 | 63 | 244 | 0.0 | 10.0 | 0.00 | 0.00 | 0.00 | 29 | 1013.8 |
| 20260503224527 | 64 | 277 | 2.0 | 5.0 | 0.00 | 0.00 | 0.00 | 29 | 1013.8 |
| 20260503223028 | 64 | 230 | 2.0 | 10.0 | 0.00 | 0.00 | 0.00 | 29 | 1013.9 |
| 20260503221523 | 64 | 294 | 2.0 | 7.0 | 0.00 | 0.00 | 0.00 | 30 | 1014.0 |
| 20260503220020 | 64 | 143 | 2.0 | 7.0 | 0.00 | 0.00 | 0.00 | 29 | 1014.1 |
| 20260503214518 | 65 | 228 | 1.0 | 6.0 | 0.00 | 0.00 | 0.00 | 27 | 1014.1 |
| 20260503213011 | 65 | 288 | 2.0 | 13.0 | 0.00 | 0.00 | 0.00 | 28 | 1014.1 |
| 20260503211529 | 66 | 274 | 1.0 | 7.0 | 0.00 | 0.00 | 0.00 | 27 | 1014.3 |
| 20260503210015 | 65 | 234 | 2.0 | 6.0 | 0.00 | 0.00 | 0.00 | 30 | 1014.3 |
| 20260503204522 | 65 | 311 | 1.0 | 7.0 | 0.00 | 0.00 | 0.00 | 29 | 1014.3 |
| 20260503203042 | 65 | 196 | 1.0 | 11.0 | 0.00 | 0.00 | 0.00 | 29 | 1014.3 |
| 20260503201519 | 65 | 205 | 0.0 | 5.0 | 0.00 | 0.00 | 0.00 | 34 | 1014.6 |
| 20260503200014 | 65 | 315 | 4.0 | 13.0 | 0.00 | 0.00 | 0.00 | 28 | 1015.0 |
| 20260503194531 | 64 | 129 | 3.0 | 11.0 | 0.00 | 0.00 | 0.00 | 30 | 1015.0 |
| 20260503193024 | 64 | 261 | 0.0 | 12.0 | 0.00 | 0.00 | 0.00 | 31 | 1015.2 |
| 20260503191524 | 63 | 254 | 1.0 | 8.0 | 0.00 | 0.00 | 0.00 | 31 | 1015.4 |
| 20260503190035 | 63 | 153 | 3.0 | 10.0 | 0.00 | 0.00 | 0.00 | 31 | 1015.8 |
| 20260503184522 | 62 | 252 | 1.0 | 11.0 | 0.00 | 0.00 | 0.00 | 35 | 1015.9 |
| 20260503183024 | 62 | 325 | 1.0 | 7.0 | 0.00 | 0.00 | 0.00 | 34 | 1016.1 |
| 20260503181518 | 61 | 268 | 0.0 | 3.0 | 0.00 | 0.00 | 0.00 | 39 | 1016.4 |
| 20260503180033 | 60 | 295 | 3.0 | 8.0 | 0.00 | 0.00 | 0.00 | 36 | 1016.7 |
| 20260503174527 | 60 | 288 | 1.0 | 7.0 | 0.00 | 0.00 | 0.00 | 35 | 1016.6 |
| 20260503173020 | 59 | 248 | 1.0 | 10.0 | 0.00 | 0.00 | 0.00 | 36 | 1017.1 |
| 20260503171523 | 59 | 279 | 1.0 | 8.0 | 0.00 | 0.00 | 0.00 | 43 | 1017.3 |
| 20260503081534 | 36 | 300 | 0.0 | 0.0 | 0.00 | 0.00 | 0.00 | 84 | 1015.0 |